User: anonymous   Login
Location: Buch am Rannenberg
(48.6989°N, 10.6399°E)
Time: 11:52:09
(UTC+00:00)
Language:

Cosmos 2084 Rocket - Orbit

View from above orbital plane
View from above orbital plane
View from above satellite
View from above satellite

Ground track
Ground track

The orbit data is extracted from the following two-line orbital elements,

1 20666U 90055D   20227.06451738 -.00000057  00000-0  12797-4 0  9999
2 20666  62.7845 252.1233 0053133 353.2528   6.7843 14.92352699633364
Epoch (UTC): 14 August 2020 01:32:54
Eccentricity: 0.0053133
inclination: 62.7845°
perigee height: 553 km
apogee height: 627 km
right ascension of ascending node: 252.1233°
argument of perigee: 353.2528°
revolutions per day: 14.92352699
mean anomaly at epoch: 6.7843°
orbit number at epoch: 63336

The dashed part of the orbit path shows where the satellite is in the earth's shadow,  

DLR